Liberal, KS

12:47 PM CDT on September 19, 2017 (GMT -0500)
Liberal Municipal

Weather History for KLBL - May, 2013

Change the Weather History Date:

Tuesday, May 14, 2013

  Actual Average Record
Temperature  
Mean Temperature 76 °F -  
Max Temperature 93 °F 79 °F 100 °F (1963)
Min Temperature 59 °F 49 °F 28 °F (1953)
Cooling Degree Days 11    
Growing Degree Days 26 (Base 50)    
Moisture  
Dew Point 33 °F    
Average Humidity 23    
Maximum Humidity 37    
Minimum Humidity 13    
Precipitation  
Precipitation 0.00 in - - ()
Sea Level Pressure  
Sea Level Pressure 29.96 in    
Wind  
Wind Speed 17 mph (SSW)    
Max Wind Speed 29 mph    
Max Gust Speed 36 mph    
Visibility 10 miles    
Events      
Averages and records for this station are not official NWS values.
T = Trace of Precipitation, MM = Missing Value Source: NWS Daily Summary

Daily Weather History Graph

Daily Weather History Graph

Search for Another Location

Airport or City:

Trip Planner

Search our weather history database for the weather conditions in past years. The results will help you decide how hot, cold, wet, or windy it might be!

Date:

Astronomy

May. 14, 2013 Rise Set
Actual Time 6:36 AM CDT 8:44 PM CDT
Civil Twilight 6:07 AM CDT 9:13 PM CDT
Nautical Twilight 5:31 AM CDT 9:49 PM CDT
Astronomical Twilight 4:53 AM CDT 10:27 PM CDT
Moon 10:17 AM CDT (5/14) No Moon Set
Length of Visible Light 15h 06m
Length of Day
14h 08m
Waxing Crescent, 19% of the Moon is Illuminated
May 14
Waxing Crescent
May 17
First Quarter
May 24
Full
May 31
Last Quarter
Jun 8
New

Hourly Weather History & Observations

Time (CDT) Temp. Dew Point Humidity Pressure Visibility Wind Dir Wind Speed Gust Speed Precip Events Conditions
12:15 AM 66.2 °F 33.8 °F 30% 30.03 in 10.0 mi SSW 11.5 mph - N/A   Clear
12:35 AM 66.2 °F 32.0 °F 28% 30.03 in 10.0 mi SSW 11.5 mph - N/A   Clear
12:55 AM 66.2 °F 32.0 °F 28% 30.02 in 10.0 mi SSW 13.8 mph - N/A   Clear
1:15 AM 64.4 °F 30.2 °F 28% 30.03 in 10.0 mi SSW 12.7 mph - N/A   Clear
1:35 AM 62.6 °F 30.2 °F 30% 30.03 in 10.0 mi SW 12.7 mph - N/A   Clear
1:55 AM 62.6 °F 30.2 °F 30% 30.02 in 10.0 mi SW 12.7 mph - N/A   Clear
2:15 AM 62.6 °F 32.0 °F 32% 30.02 in 10.0 mi SSW 12.7 mph - N/A   Clear
2:35 AM 62.6 °F 32.0 °F 32% 30.02 in 10.0 mi SSW 15.0 mph - N/A   Clear
2:55 AM 64.4 °F 32.0 °F 30% 30.02 in 10.0 mi SSW 16.1 mph - N/A   Clear
3:15 AM 64.4 °F 32.0 °F 30% 30.02 in 10.0 mi SSW 18.4 mph - N/A   Clear
3:35 AM 64.4 °F 30.2 °F 28% 30.01 in 10.0 mi SSW 15.0 mph - N/A   Clear
3:55 AM 64.4 °F 30.2 °F 28% 30.01 in 10.0 mi SSW 17.3 mph 20.7 mph N/A   Clear
4:15 AM 62.6 °F 30.2 °F 30% 30.01 in 10.0 mi SSW 16.1 mph - N/A   Clear
4:35 AM 62.6 °F 30.2 °F 30% 30.01 in 10.0 mi SSW 15.0 mph - N/A   Clear
4:55 AM 60.8 °F 28.4 °F 29% 30.01 in 10.0 mi SSW 15.0 mph - N/A   Clear
5:15 AM 60.8 °F 28.4 °F 29% 30.00 in 10.0 mi SSW 13.8 mph - N/A   Clear
5:35 AM 60.8 °F 28.4 °F 29% 30.01 in 10.0 mi SSW 15.0 mph - N/A   Clear
5:55 AM 60.8 °F 30.2 °F 31% 30.00 in 10.0 mi SW 16.1 mph - N/A   Clear
6:15 AM 59.0 °F 28.4 °F 31% 30.01 in 10.0 mi SSW 13.8 mph - N/A   Clear
6:35 AM 59.0 °F 28.4 °F 31% 30.01 in 10.0 mi SSW 13.8 mph - N/A   Clear
6:55 AM 59.0 °F 28.4 °F 31% 30.01 in 10.0 mi SSW 16.1 mph - N/A   Clear
7:15 AM 60.8 °F 28.4 °F 29% 30.01 in 10.0 mi SSW 15.0 mph - N/A   Clear
7:35 AM 60.8 °F 30.2 °F 31% 30.01 in 10.0 mi SSW 16.1 mph - N/A   Clear
7:55 AM 62.6 °F 30.2 °F 30% 30.02 in 10.0 mi SSW 16.1 mph 21.9 mph N/A   Clear
8:15 AM 64.4 °F 30.2 °F 28% 30.02 in 10.0 mi SSW 19.6 mph 25.3 mph N/A   Clear
8:35 AM 66.2 °F 32.0 °F 28% 30.02 in 10.0 mi SW 20.7 mph 26.5 mph N/A   Clear
8:55 AM 69.8 °F 32.0 °F 25% 30.02 in 10.0 mi SW 24.2 mph 28.8 mph N/A   Clear
9:15 AM 71.6 °F 33.8 °F 25% 30.02 in 10.0 mi SW 21.9 mph 28.8 mph N/A   Clear
9:35 AM 73.4 °F 33.8 °F 23% 30.02 in 10.0 mi SW 21.9 mph 26.5 mph N/A   Clear
9:55 AM 77.0 °F 35.6 °F 22% 30.02 in 10.0 mi WSW 27.6 mph 33.4 mph N/A   Clear
10:15 AM 78.8 °F 37.4 °F 23% 30.02 in 10.0 mi SW 27.6 mph 35.7 mph N/A   Clear
10:35 AM 80.6 °F 35.6 °F 20% 30.02 in 10.0 mi SW 26.5 mph 33.4 mph N/A   Clear
10:55 AM 82.4 °F 37.4 °F 20% 30.01 in 10.0 mi SW 25.3 mph 33.4 mph N/A   Clear
11:15 AM 82.4 °F 37.4 °F 20% 30.01 in 10.0 mi SW 25.3 mph 29.9 mph N/A   Clear
11:35 AM 84.2 °F 39.2 °F 20% 30.01 in 10.0 mi SW 21.9 mph 35.7 mph N/A   Clear
11:55 AM 87.8 °F 39.2 °F 18% 30.00 in 10.0 mi SSW 27.6 mph 33.4 mph N/A   Clear
12:15 PM 87.8 °F 39.2 °F 18% 30.00 in 10.0 mi SSW 28.8 mph 32.2 mph N/A   Clear
12:35 PM 89.6 °F 39.2 °F 17% 29.99 in 10.0 mi SSW 26.5 mph 32.2 mph N/A   Clear
12:55 PM 89.6 °F 39.2 °F 17% 29.98 in 10.0 mi SW 25.3 mph 33.4 mph N/A   Clear
1:15 PM 89.6 °F 37.4 °F 16% 29.97 in 10.0 mi SW 27.6 mph 31.1 mph N/A   Clear
1:35 PM 91.4 °F 37.4 °F 15% 29.96 in 10.0 mi SSW 26.5 mph 32.2 mph N/A   Clear
1:55 PM 91.4 °F 37.4 °F 15% 29.95 in 10.0 mi SSW 23.0 mph 32.2 mph N/A   Clear
2:15 PM 91.4 °F 37.4 °F 15% 29.95 in 10.0 mi SSW 24.2 mph 33.4 mph N/A   Clear
2:35 PM 91.4 °F 37.4 °F 15% 29.94 in 10.0 mi SSW 23.0 mph 28.8 mph N/A   Clear
2:55 PM 93.2 °F 37.4 °F 14% 29.93 in 10.0 mi SSW 20.7 mph 33.4 mph N/A   Clear
3:15 PM 93.2 °F 35.6 °F 13% 29.92 in 10.0 mi SSW 20.7 mph 26.5 mph N/A   Clear
3:35 PM 93.2 °F 35.6 °F 13% 29.91 in 10.0 mi SW 21.9 mph 27.6 mph N/A   Clear
3:55 PM 91.4 °F 35.6 °F 14% 29.90 in 10.0 mi South 21.9 mph 27.6 mph N/A   Clear
4:15 PM 93.2 °F 35.6 °F 13% 29.90 in 10.0 mi South 17.3 mph 26.5 mph N/A   Clear
4:35 PM 93.2 °F 35.6 °F 13% 29.89 in 10.0 mi SSW 19.6 mph 31.1 mph N/A   Clear
4:55 PM 91.4 °F 35.6 °F 14% 29.88 in 10.0 mi South 17.3 mph 26.5 mph N/A   Clear
5:15 PM 91.4 °F 35.6 °F 14% 29.87 in 10.0 mi SSW 19.6 mph 25.3 mph N/A   Clear
5:35 PM 91.4 °F 35.6 °F 14% 29.87 in 10.0 mi South 19.6 mph 24.2 mph N/A   Clear
5:55 PM 91.4 °F 33.8 °F 13% 29.86 in 10.0 mi South 23.0 mph 29.9 mph N/A   Clear
6:15 PM 91.4 °F 33.8 °F 13% 29.86 in 10.0 mi South 18.4 mph 26.5 mph N/A   Clear
6:35 PM 91.4 °F 33.8 °F 13% 29.86 in 10.0 mi South 18.4 mph 25.3 mph N/A   Clear
6:55 PM 89.6 °F 33.8 °F 14% 29.86 in 10.0 mi South 21.9 mph 26.5 mph N/A   Clear
7:15 PM 89.6 °F 33.8 °F 14% 29.85 in 10.0 mi South 19.6 mph 24.2 mph N/A   Clear
7:35 PM 87.8 °F 33.8 °F 15% 29.85 in 10.0 mi South 19.6 mph 27.6 mph N/A   Clear
7:55 PM 86.0 °F 33.8 °F 15% 29.85 in 10.0 mi South 15.0 mph - N/A   Clear
8:15 PM 84.2 °F 32.0 °F 15% 29.85 in 10.0 mi South 15.0 mph - N/A   Clear
8:35 PM 80.6 °F 32.0 °F 17% 29.85 in 10.0 mi South 12.7 mph - N/A   Clear
8:55 PM 78.8 °F 30.2 °F 17% 29.85 in 10.0 mi South 13.8 mph - N/A   Clear
9:15 PM 75.2 °F 32.0 °F 21% 29.87 in 10.0 mi South 11.5 mph - N/A   Clear
9:35 PM 73.4 °F 32.0 °F 22% 29.87 in 10.0 mi South 11.5 mph - N/A   Clear
9:55 PM 69.8 °F 30.2 °F 23% 29.87 in 10.0 mi South 10.4 mph - N/A   Clear
10:15 PM 66.2 °F 32.0 °F 28% 29.88 in 10.0 mi South 10.4 mph - N/A   Clear
10:35 PM 66.2 °F 33.8 °F 30% 29.88 in 10.0 mi SSE 9.2 mph - N/A   Clear
10:55 PM 66.2 °F 33.8 °F 30% 29.88 in 10.0 mi South 10.4 mph - N/A   Clear
11:15 PM 64.4 °F 33.8 °F 32% 29.88 in 10.0 mi South 10.4 mph - N/A   Clear
11:35 PM 62.6 °F 35.6 °F 37% 29.88 in 10.0 mi SSE 9.2 mph - N/A   Clear
11:55 PM 62.6 °F 35.6 °F 37% 29.88 in 10.0 mi SSE 11.5 mph - N/A   Clear